sat.trackr.live / text

‹ back to catalog

STARLINK-31151

NORAD 58742 · 2024-005Q

PAYLOAD ACTIVE UNKNOWN

§ Identity

Operator
Country
US
Launch date
2024-01-07
Launch site
AFETR
Launch vehicle
Mass (kg)
RCS (m²)

Purposes: comms

External: N2YO · Heavens-Above · Gunter

§ Orbital elements

Epoch: 2026-05-25T01:09:41.105952Z

Period
94.27 min
Inclination
43.0031°
Eccentricity
0.0000958
Mean motion
15.27578799 rev/d
Perigee alt
482.4 km
Apogee alt
483.7 km
Semi-major
6,861.2 km
B*
4.8302e-5
RAAN
148.3669°
Arg perigee
264.7873°
Mean anomaly
95.2869°
Rev number
13,221

§ Raw data

STARLINK-311511 58742U 24005Q   26145.04839243  .00001067  00000+0  48302-4 0  99922 58742  43.0031 148.3669 0000958 264.7873  95.2869 15.27578799132213

JSON: /api/v1/satellites/58742 · /tle

For live sub-satellite position, see the globe view (requires WebGL).

§ Visibility from observer

Set your observer location to see the next 7 days of passes ≥ 10°. The values pass through the URL so the page stays shareable.

No JS? Fill the form by hand. The geolocation button needs JavaScript.